This is the latest recevied weather packets stored in our database for station/object DO7ZT-10. If no packets are shown the sender has not sent any weather packets the latest 10 day(s).
| Time | Temp. | Humidity | Pressure | Rain* | Wind** | Luminosity | Snow |
|---|---|---|---|---|---|---|---|
| 1787755594 | 17.78° C | 65% | 1021.5 hPa | - | - | - | - |
| 1787754694 | 17.78° C | 64% | 1021.7 hPa | - | - | - | - |
| 1787753794 | 17.78° C | 64% | 1021.7 hPa | - | - | - | - |
| 1787752894 | 17.78° C | 66% | 1021.8 hPa | - | - | - | - |
| 1787751994 | 17.78° C | 67% | 1021.7 hPa | - | - | - | - |
| 1787751093 | 17.78° C | 68% | 1021.7 hPa | - | - | - | - |
| 1787750193 | 17.22° C | 69% | 1021.7 hPa | - | - | - | - |
| 1787749293 | 17.22° C | 71% | 1021.6 hPa | - | - | - | - |
| 1787748393 | 17.22° C | 71% | 1021.6 hPa | - | - | - | - |
| 1787747493 | 17.22° C | 71% | 1021.6 hPa | - | - | - | - |
| 1787746593 | 17.22° C | 72% | 1021.6 hPa | - | - | - | - |
| 1787745693 | 17.22° C | 72% | 1021.5 hPa | - | - | - | - |
| 1787744793 | 17.22° C | 72% | 1021.4 hPa | - | - | - | - |
| 1787743893 | 17.22° C | 70% | 1021.4 hPa | - | - | - | - |
| 1787742993 | 17.22° C | 70% | 1021.5 hPa | - | - | - | - |
| 1787742093 | 16.67° C | 73% | 1021.5 hPa | - | - | - | - |
| 1787741193 | 16.67° C | 73% | 1021.7 hPa | - | - | - | - |
| 1787740293 | 16.11° C | 74% | 1021.7 hPa | - | - | - | - |
| 1787739392 | 16.11° C | 74% | 1021.6 hPa | - | - | - | - |
| 1787738492 | 16.11° C | 74% | 1021.6 hPa | - | - | - | - |
| 1787737592 | 16.11° C | 74% | 1021.5 hPa | - | - | - | - |
| 1787736692 | 15.56° C | 75% | 1021.5 hPa | - | - | - | - |
| 1787735792 | 15.56° C | 76% | 1021.5 hPa | - | - | - | - |
| 1787734892 | 15.56° C | 77% | 1021.4 hPa | - | - | - | - |
| 1787733992 | 15.56° C | 76% | 1021.3 hPa | - | - | - | - |
* Rain since midnight (hover to see other rain measurements)
** Current wind speed in m/s (hover to see current wind gust speed)